Regional Weather Roundup
Issued by NWS

Home | Current Version | Previous Version | Text Only | Print | Product List | Glossary Off
Versions: 1 2 3 4 5 6 7 8 9 10 11 12 13 14 15 16 17 18 19 20 21 22 23 24 25 26 27 28 29 30 31 32 33 34 35 36 37 38 39 40 41 42 43 44 45 46 47 48 49 50

000
ASUS43 KLSX 220707
RWRMO

WEATHER SUMMARY FOR MISSOURI
NATIONAL WEATHER SERVICE SPRINGFIELD MO
100 AM CST THU FEB 22 2018

NOTE: "FAIR" INDICATES FEW OR NO CLOUDS BELOW 12,000 FEET WITH NO
       SIGNIFICANT WEATHER AND/OR OBSTRUCTIONS TO VISIBILITY.
       CURRENT SKY AND/OR WEATHER CONDITIONS ARE NOT AVAILABLE FOR
       CHILLICOTHE AND FARMINGTON.

MOZ001>031-035>038-043-044-053-054-220800-
...NORTHERN AND WESTERN MISSOURI...

CITY           SKY/WX    TMP DP  RH WIND       PRES   REMARKS
KANSAS CTY INT FRZ DRZL  26  23  88 E12       30.43S FOG     WCI  16
KANSAS C DTWN  CLOUDY    28  24  85 NE8       30.44S WCI  20
LEE`S SUMMIT   CLOUDY    27  25  92 E12       30.41F WCI  17
ST JOSEPH      CLOUDY    26  23  88 E8        30.48S WCI  18
CHILLICOTHE      N/A     27  21  78 NE6       30.49S WCI  20
KIRKSVILLE     CLOUDY    27  21  78 NE9       30.48S WCI  18

$$
MOZ066>068-077>081-088>096-101>105-220800-
...SOUTHWEST MISSOURI...

CITY           SKY/WX    TMP DP  RH WIND       PRES   REMARKS
SPRINGFIELD    CLOUDY    29  28  96 NE10      30.32F FOG     WCI  20
JOPLIN         CLOUDY    29  29 100 E8        30.35F WCI  21

$$
MOZ032>034-039>042-045>050-055>058-069>072-220800-
...CENTRAL MISSOURI...

CITY           SKY/WX    TMP DP  RH WIND       PRES   REMARKS
COLUMBIA       CLOUDY    30  28  92 NE9       30.42F FOG     WCI  22
JEFFERSON CITY CLOUDY    30  28  92 NE5       30.44F FOG     WCI  25
ROLLA          CLOUDY    28  28 100 N12       30.40S FOG     WCI  18
SEDALIA        CLOUDY    29  29 100 NE10      30.43F FOG     WCI  20
WHITEMAN AFB   FRZ DRZL  28  26  91 NE9       30.38F FOG     WCI  19
WARRENSBURG    MIX PCPN  28  27  93 NE6       30.43F WCI  22
OSAGE BEACH    MIX PCPN  30  29  96 NE7       30.40F FOG     WCI  23

$$
MOZ051-052-059>065-220800-
...EAST CENTRAL MISSOURI...

CITY           SKY/WX    TMP DP  RH WIND       PRES   REMARKS
ST LOUIS INTL  DRIZZLE   33  32  96 NE9       30.38F WCI  25
SPIRIT OF STL  CLOUDY    33  31  92 NW10      30.43R WCI  25
ST CHARLES     CLOUDY    33  30  88 N9        30.42F WCI  25

$$
MOZ072>076-082>087-097>100-106>115-220800-
...SOUTH CENTRAL AND SOUTHEAST MISSOURI...

CITY           SKY/WX    TMP DP  RH WIND       PRES   REMARKS
CAPE GIRARDEAU RAIN      37  35  92 NE12      30.32F FOG     WCI  29
FARMINGTON     LGT RAIN  33  32  96 N13       30.25F WCI  24
POPLAR BLUFF   LGT RAIN  36  35  96 E17G24    30.23F WCI  26
WEST PLAINS    FRZ RAIN  32  31  96 N13G21    30.32R FOG     WCI  22

$$


USA.gov is the U.S. government's official web portal to all federal, state and local government web resources and services.